• Em Portugal
  • Lista de países
  • Para 7 dias
  • Temperatura da água
  • Mapas de satélite
  • Mapa do tempo
  • Widgets de tempo
  • user-avatar
    Iniciar Sessão

    Previsão horária em Dawei

    Hoje, 20 Outubro, Sexta-feira

    Tempo Temperatura Precipitação Vento Pressão Humidade
    00:00 +24°C° 0 mm 0 m/s 757 mmHg 96%
    01:00 +24°C° 0 mm 0 m/s 757 mmHg 96%
    02:00 +24°C° 0 mm 0 m/s 757 mmHg 96%
    03:00 +23°C° 0 mm 0 m/s 757 mmHg 96%
    04:00 +23°C° 0 mm 0 m/s 757 mmHg 96%
    05:00 +23°C° 0 mm 0 m/s 757 mmHg 96%
    06:00 +24°C° 0 mm 0 m/s 757 mmHg 95%
    07:00 +24°C° 0 mm 0 m/s 757 mmHg 94%
    08:00 +27°C° 0 mm 0 m/s 757 mmHg 83%
    09:00 +29°C° 0 mm 0 m/s 757 mmHg 73%
    10:00 +31°C° 0 mm 0 m/s 758 mmHg 63%
    11:00 +34°C° 0 mm 1 m/s 757 mmHg 61%
    12:00 +34°C° 0 mm 1 m/s 757 mmHg 60%
    13:00 +35°C° 0 mm 2 m/s 756 mmHg 63%
    14:00 +34°C° 0,3 mm 2 m/s 756 mmHg 67%
    15:00 +34°C° 0,3 mm 2 m/s 756 mmHg 72%
    16:00 +32°C° 0,3 mm 2 m/s 755 mmHg 76%
    17:00 +31°C° 0 mm 2 m/s 755 mmHg 82%
    18:00 +29°C° 0 mm 1 m/s 756 mmHg 88%
    19:00 +27°C° 0 mm 1 m/s 756 mmHg 95%
    20:00 +27°C° 0 mm 1 m/s 756 mmHg 95%
    21:00 +27°C° 0 mm 1 m/s 757 mmHg 96%
    22:00 +27°C° 0 mm 1 m/s 757 mmHg 97%
    23:00 +27°C° 0 mm 1 m/s 757 mmHg 97%

    Amanhã, 21 Outubro, Sábado

    Tempo Temperatura Precipitação Vento Pressão Humidade
    00:00 +26°C° 0 mm 1 m/s 757 mmHg 97%
    01:00 +26°C° 0 mm 1 m/s 757 mmHg 97%
    02:00 +26°C° 0 mm 1 m/s 757 mmHg 97%
    03:00 +26°C° 0 mm 1 m/s 756 mmHg 97%
    04:00 +26°C° 0 mm 1 m/s 756 mmHg 98%
    05:00 +26°C° 0 mm 1 m/s 756 mmHg 97%
    06:00 +26°C° 0 mm 1 m/s 756 mmHg 96%
    07:00 +26°C° 0 mm 1 m/s 756 mmHg 95%
    08:00 +29°C° 0 mm 1 m/s 757 mmHg 84%
    09:00 +31°C° 0 mm 1 m/s 757 mmHg 74%
    10:00 +31°C° 0 mm 0 m/s 757 mmHg 63%
    11:00 +33°C° 0,2 mm 1 m/s 757 mmHg 67%
    12:00 +34°C° 0,2 mm 2 m/s 756 mmHg 70%
    13:00 +34°C° 0,2 mm 2 m/s 756 mmHg 74%
    14:00 +34°C° 0,8 mm 2 m/s 755 mmHg 77%
    15:00 +32°C° 0,8 mm 2 m/s 755 mmHg 80%
    16:00 +31°C° 0,8 mm 2 m/s 754 mmHg 84%
    17:00 +30°C° 0,2 mm 2 m/s 754 mmHg 88%
    18:00 +29°C° 0,2 mm 2 m/s 755 mmHg 91%
    19:00 +28°C° 0,2 mm 1 m/s 755 mmHg 95%
    20:00 +27°C° 0,1 mm 1 m/s 755 mmHg 96%
    21:00 +27°C° 0,1 mm 1 m/s 756 mmHg 96%
    22:00 +27°C° 0,1 mm 1 m/s 756 mmHg 97%
    23:00 +27°C° 0 mm 1 m/s 756 mmHg 97%

    Depois de amanhã, 22 Outubro, Domingo

    Tempo Temperatura Precipitação Vento Pressão Humidade
    00:00 +27°C° 0 mm 1 m/s 756 mmHg 97%
    01:00 +27°C° 0 mm 1 m/s 756 mmHg 97%
    02:00 +27°C° 0 mm 1 m/s 756 mmHg 98%
    03:00 +26°C° 0 mm 1 m/s 755 mmHg 98%
    04:00 +26°C° 0 mm 1 m/s 755 mmHg 98%
    05:00 +27°C° 0,1 mm 1 m/s 755 mmHg 97%
    06:00 +27°C° 0,1 mm 1 m/s 755 mmHg 97%
    07:00 +27°C° 0,1 mm 1 m/s 756 mmHg 96%
    08:00 +27°C° 0 mm 0 m/s 756 mmHg 86%
    09:00 +29°C° 0 mm 0 m/s 756 mmHg 75%
    10:00 +32°C° 0 mm 0 m/s 757 mmHg 65%
    11:00 +33°C° 0,8 mm 1 m/s 756 mmHg 69%
    12:00 +33°C° 0,8 mm 1 m/s 755 mmHg 73%
    13:00 +34°C° 0,8 mm 2 m/s 754 mmHg 77%
    14:00 +32°C° 1 mm 2 m/s 754 mmHg 80%
    15:00 +32°C° 1 mm 2 m/s 753 mmHg 83%
    16:00 +31°C° 1 mm 2 m/s 753 mmHg 86%
    17:00 +30°C° 0,4 mm 2 m/s 753 mmHg 89%
    18:00 +29°C° 0,4 mm 1 m/s 754 mmHg 92%
    19:00 +28°C° 0,4 mm 1 m/s 754 mmHg 95%
    20:00 +28°C° 0,2 mm 1 m/s 755 mmHg 96%
    21:00 +27°C° 0,2 mm 1 m/s 755 mmHg 96%
    22:00 +25°C° 0,2 mm 0 m/s 756 mmHg 97%
    23:00 +25°C° 0,2 mm 0 m/s 756 mmHg 97%

    23 Outubro, Segunda-feira

    Tempo Temperatura Precipitação Vento Pressão Humidade
    00:00 +25°C° 0,2 mm 0 m/s 756 mmHg 97%
    01:00 +25°C° 0,2 mm 0 m/s 755 mmHg 98%
    02:00 +25°C° 0,1 mm 0 m/s 755 mmHg 98%
    03:00 +25°C° 0,1 mm 0 m/s 755 mmHg 98%
    04:00 +25°C° 0,1 mm 0 m/s 754 mmHg 98%
    05:00 +25°C° 0 mm 0 m/s 754 mmHg 98%
    06:00 +27°C° 0 mm 1 m/s 755 mmHg 97%
    07:00 +27°C° 0 mm 1 m/s 755 mmHg 97%
    08:00 +29°C° 0 mm 1 m/s 756 mmHg 86%
    09:00 +32°C° 0 mm 1 m/s 756 mmHg 76%
    10:00 +34°C° 0 mm 1 m/s 756 mmHg 65%
    11:00 +34°C° 0,5 mm 1 m/s 756 mmHg 68%
    12:00 +34°C° 0,5 mm 1 m/s 755 mmHg 71%
    13:00 +35°C° 0,5 mm 2 m/s 754 mmHg 74%
    14:00 +34°C° 1,2 mm 2 m/s 754 mmHg 79%
    15:00 +32°C° 1,2 mm 2 m/s 754 mmHg 83%
    16:00 +31°C° 1,2 mm 2 m/s 753 mmHg 87%
    17:00 +30°C° 0,7 mm 1 m/s 754 mmHg 90%
    18:00 +29°C° 0,7 mm 1 m/s 754 mmHg 92%
    19:00 +28°C° 0,7 mm 1 m/s 755 mmHg 95%
    20:00 +26°C° 1,8 mm 0 m/s 755 mmHg 96%
    21:00 +25°C° 1,8 mm 0 m/s 756 mmHg 96%
    22:00 +25°C° 1,8 mm 0 m/s 757 mmHg 97%
    23:00 +25°C° 1,7 mm 0 m/s 756 mmHg 97%

    24 Outubro, Terça-feira

    Tempo Temperatura Precipitação Vento Pressão Humidade
    00:00 +27°C° 1,7 mm 1 m/s 756 mmHg 97%
    01:00 +27°C° 1,7 mm 1 m/s 756 mmHg 97%
    02:00 +27°C° 2,1 mm 1 m/s 756 mmHg 97%
    03:00 +25°C° 2,1 mm 0 m/s 755 mmHg 97%
    04:00 +25°C° 2,1 mm 0 m/s 755 mmHg 97%
    05:00 +25°C° 0,4 mm 0 m/s 756 mmHg 97%
    06:00 +27°C° 0,4 mm 1 m/s 756 mmHg 97%
    07:00 +27°C° 0,4 mm 1 m/s 757 mmHg 97%
    08:00 +28°C° 0,4 mm 1 m/s 757 mmHg 94%
    09:00 +29°C° 0,4 mm 1 m/s 757 mmHg 91%
    10:00 +30°C° 0,4 mm 1 m/s 758 mmHg 88%
    11:00 +31°C° 0,8 mm 1 m/s 757 mmHg 86%
    12:00 +31°C° 0,8 mm 1 m/s 757 mmHg 83%
    13:00 +32°C° 0,8 mm 1 m/s 756 mmHg 81%
    14:00 +32°C° 1,4 mm 1 m/s 755 mmHg 84%
    15:00 +31°C° 1,4 mm 1 m/s 755 mmHg 86%
    16:00 +31°C° 1,4 mm 1 m/s 755 mmHg 89%
    17:00 +28°C° 0,7 mm 0 m/s 755 mmHg 91%
    18:00 +27°C° 0,7 mm 0 m/s 756 mmHg 94%
    19:00 +26°C° 0,7 mm 0 m/s 756 mmHg 96%
    20:00 +25°C° 1,1 mm 0 m/s 757 mmHg 97%
    21:00 +27°C° 1,1 mm 1 m/s 757 mmHg 97%
    22:00 +27°C° 1,1 mm 1 m/s 758 mmHg 97%
    23:00 +27°C° 0,8 mm 1 m/s 758 mmHg 98%

    25 Outubro, Quarta-feira

    Tempo Temperatura Precipitação Vento Pressão Humidade
    00:00 +27°C° 0,8 mm 1 m/s 757 mmHg 98%
    01:00 +27°C° 0,8 mm 1 m/s 757 mmHg 98%
    02:00 +27°C° 0,1 mm 1 m/s 757 mmHg 98%
    03:00 +26°C° 0,1 mm 1 m/s 757 mmHg 98%
    04:00 +26°C° 0,1 mm 1 m/s 756 mmHg 98%
    05:00 +26°C° 0,3 mm 1 m/s 757 mmHg 98%
    06:00 +26°C° 0,3 mm 1 m/s 757 mmHg 98%
    07:00 +26°C° 0,3 mm 1 m/s 758 mmHg 97%
    08:00 +28°C° 0,2 mm 1 m/s 758 mmHg 89%
    09:00 +30°C° 0,2 mm 2 m/s 759 mmHg 80%
    10:00 +32°C° 0,2 mm 2 m/s 759 mmHg 71%
    11:00 +32°C° 0,7 mm 2 m/s 758 mmHg 74%
    12:00 +32°C° 0,7 mm 2 m/s 758 mmHg 77%
    13:00 +34°C° 0,7 mm 2 m/s 757 mmHg 79%
    14:00 +32°C° 2,3 mm 1 m/s 756 mmHg 83%
    15:00 +31°C° 2,3 mm 1 m/s 756 mmHg 86%
    16:00 +31°C° 2,3 mm 1 m/s 756 mmHg 90%
    17:00 +30°C° 2,1 mm 1 m/s 756 mmHg 92%
    18:00 +29°C° 2,1 mm 1 m/s 757 mmHg 93%
    19:00 +26°C° 2,1 mm 0 m/s 757 mmHg 95%
    20:00 +25°C° 1,1 mm 0 m/s 757 mmHg 96%
    21:00 +25°C° 1,1 mm 0 m/s 758 mmHg 96%
    22:00 +25°C° 1,1 mm 0 m/s 758 mmHg 97%
    23:00 +25°C° 0,2 mm 0 m/s 758 mmHg 97%
    Mostrar mais